GW3142 Weather Reports


time (UTC)temp
C
wind
direction
speed
KPH
gust
KPH
rain 1hr
cm
rain 24hr
cm
rain mn
cm
humidity
%
barometer
mb
20260503211003 11 222 4.8 14.5 0.00 0.13 0.13 75 1013.3
20260503210716 11 222 4.8 11.3 0.00 0.13 0.13 75 1013.3
20260503210214 10 222 4.8 11.3 0.00 0.13 0.13 75 1013.3
20260503205503 10 222 4.8 11.3 0.00 0.13 0.13 76 1013.4
20260503205215 10 222 4.8 11.3 0.00 0.13 0.13 77 1013.4
20260503204503 10 222 4.8 11.3 0.00 0.13 0.13 77 1013.4
20260503204216 10 222 4.8 14.5 0.00 0.13 0.13 77 1013.4
20260503203503 10 222 3.2 14.5 0.00 0.13 0.13 76 1013.4
20260503203003 10 222 3.2 8.0 0.00 0.13 0.13 77 1013.4
20260503202503 10 222 4.8 11.3 0.00 0.13 0.13 77 1013.5
20260503202212 10 222 6.4 14.5 0.00 0.13 0.13 76 1013.4
20260503201503 10 222 8.0 14.5 0.00 0.13 0.13 76 1013.5
20260503201213 11 222 6.4 14.5 0.00 0.13 0.13 77 1013.5
20260503200716 11 222 6.4 12.9 0.00 0.13 0.13 77 1013.5
20260503200003 10 222 8.0 12.9 0.00 0.13 0.13 77 1013.5
20260503195503 10 222 6.4 11.3 0.00 0.13 0.13 77 1013.5
20260503195003 10 222 6.4 11.3 0.00 0.13 0.13 77 1013.5
20260503194503 10 222 6.4 12.9 0.00 0.13 0.13 77 1013.6
20260503194003 10 222 6.4 12.9 0.00 0.13 0.13 77 1013.5
20260503193714 10 222 6.4 12.9 0.00 0.13 0.13 77 1013.6
20260503193003 10 222 6.4 11.3 0.00 0.13 0.13 78 1013.6
20260503192503 10 222 6.4 11.3 0.00 0.13 0.13 78 1013.5
20260503192003 10 222 6.4 12.9 0.00 0.13 0.13 78 1013.6
20260503191503 10 222 8.0 12.9 0.00 0.13 0.13 78 1013.6
20260503191003 10 222 8.0 12.9 0.00 0.13 0.13 78 1013.6
20260503190717 10 222 6.4 12.9 0.00 0.13 0.13 78 1013.6
20260503190215 10 222 8.0 14.5 0.00 0.13 0.13 79 1013.6
20260503185503 10 222 8.0 16.1 0.00 0.13 0.13 78 1013.6
20260503185003 10 222 6.4 16.1 0.00 0.13 0.13 78 1013.5
20260503184503 10 222 6.4 12.9 0.00 0.13 0.13 79 1013.5
20260503184217 10 222 6.4 12.9 0.00 0.13 0.13 79 1013.5
20260503183503 10 222 6.4 12.9 0.00 0.13 0.13 79 1013.5
20260503183004 10 222 6.4 12.9 0.00 0.13 0.13 80 1013.6
20260503182503 9 222 8.0 14.5 0.00 0.13 0.13 80 1013.5
20260503182214 9 222 8.0 14.5 0.00 0.13 0.13 80 1013.5
20260503181717 9 222 8.0 12.9 0.00 0.13 0.13 80 1013.4
20260503181003 8 222 9.7 14.5 0.00 0.13 0.13 80 1013.4
20260503180503 8 222 9.7 19.3 0.00 0.13 0.13 80 1013.4
20260503180004 8 222 11.3 19.3 0.00 0.13 0.13 80 1013.4
20260503175503 8 222 11.3 19.3 0.00 0.13 0.13 80 1013.4
20260503175217 8 222 11.3 19.3 0.00 0.13 0.13 80 1013.4
20260503174503 8 222 9.7 20.9 0.00 0.13 0.13 80 1013.3
20260503174003 9 222 8.0 20.9 0.00 0.13 0.13 80 1013.3
20260503173504 9 222 8.0 14.5 0.00 0.13 0.13 80 1013.3
20260503173213 9 222 8.0 14.5 0.00 0.13 0.13 80 1013.2
20260503172504 9 222 9.7 16.1 0.00 0.13 0.13 80 1013.2
20260503172003 8 222 9.7 16.1 0.00 0.13 0.13 80 1013.2
20260503171503 8 222 9.7 14.5 0.00 0.13 0.13 80 1013.2
20260503171003 8 222 9.7 14.5 0.00 0.13 0.13 80 1013.2
20260503170503 8 222 9.7 16.1 0.00 0.13 0.13 80 1013.2
20260503150503 8 222 8.0 16.1 0.05 0.13 0.13 80 1012.4
20260503150213 8 222 8.0 16.1 0.05 0.13 0.13 80 1012.3
20260503131213 7 222 8.0 11.3 0.00 0.05 0.05 80 1011.3
20260503130503 7 222 8.0 12.9 0.00 0.05 0.05 80 1011.2
20260503120214 7 222 8.0 17.7 0.00 0.05 0.05 80 1011.0
20260503110717 7 222 6.4 14.5 0.05 0.05 0.05 80 1011.3
20260503090503 7 222 8.0 16.1 0.00 0.00 0.00 80 1011.3
20260503081003 7 222 6.4 12.9 0.00 0.00 0.00 79 1011.9
20260503080503 7 222 4.8 8.0 0.00 0.00 0.00 79 1011.8
20260503080217 7 222 4.8 9.7 0.00 0.00 0.00 79 1011.9
20260503072503 7 222 3.2 9.7 0.00 0.00 0.00 79 1012.0
20260503072003 7 222 1.6 6.4 0.00 0.00 0.00 79 1012.0
20260503071503 7 222 3.2 8.0 0.00 0.00 0.00 79 1011.9
20260503071217 7 222 3.2 8.0 0.00 0.00 0.00 79 1011.9
20260503070503 7 222 1.6 4.8 0.00 0.00 0.00 79 1011.8
20260503055003 7 222 4.8 9.7 0.00 0.00 0.00 79 1011.9
20260503054712 7 222 4.8 9.7 0.00 0.00 0.00 79 1012.0
20260503054003 7 222 4.8 8.0 0.00 0.00 0.00 79 1012.0
20260503053713 7 222 4.8 11.3 0.00 0.00 0.00 79 1012.1
20260503053003 7 222 4.8 11.3 0.00 0.00 0.00 79 1012.1
20260503052503 7 222 6.4 11.3 0.00 0.00 0.00 79 1012.1
20260503052003 7 222 6.4 11.3 0.00 0.00 0.00 79 1012.1
20260503051715 7 222 6.4 9.7 0.00 0.00 0.00 79 1012.2
20260503051213 7 222 4.8 9.7 0.00 0.00 0.00 79 1012.1
20260503050503 7 222 4.8 9.7 0.00 0.00 0.00 79 1012.2
20260503050003 7 222 6.4 11.3 0.00 0.00 0.00 79 1012.1
20260503045503 7 222 6.4 11.3 0.00 0.00 0.00 79 1012.1
20260503045215 7 222 4.8 9.7 0.00 0.00 0.00 79 1012.1
20260503044503 7 222 3.2 11.3 0.00 0.00 0.00 79 1012.1
20260503044003 7 222 1.6 8.0 0.00 0.00 0.00 79 1012.0
20260503043503 7 222 1.6 8.0 0.00 0.00 0.00 79 1012.0
20260503043003 7 222 1.6 6.4 0.00 0.00 0.00 79 1012.0
20260503042503 7 222 3.2 6.4 0.00 0.00 0.00 79 1012.0
20260503042212 7 222 3.2 8.0 0.00 0.00 0.00 79 1011.9
20260503041503 7 222 4.8 9.7 0.00 0.00 0.00 79 1011.8
20260503041003 7 222 4.8 9.7 0.00 0.00 0.00 79 1011.8
20260503040716 7 222 4.8 9.7 0.00 0.00 0.00 79 1011.8
20260503040003 7 222 4.8 8.0 0.00 0.00 0.00 79 1011.6
20260503035503 7 222 4.8 9.7 0.00 0.00 0.00 79 1011.5
20260503035003 7 222 4.8 9.7 0.00 0.00 0.00 79 1011.4
20260503034503 7 222 6.4 9.7 0.00 0.00 0.00 79 1011.4
20260503034003 7 222 6.4 11.3 0.00 0.00 0.00 79 1011.3
20260503033503 7 222 6.4 11.3 0.00 0.00 0.00 79 1011.3
20260503033212 7 222 6.4 11.3 0.00 0.00 0.00 79 1011.2
20260503032503 7 222 8.0 14.5 0.00 0.00 0.00 79 1011.2
20260503032003 7 222 9.7 16.1 0.00 0.00 0.00 79 1011.2
20260503031503 7 222 8.0 16.1 0.00 0.00 0.00 79 1011.2
20260503031003 7 222 8.0 12.9 0.00 0.00 0.00 79 1011.1
20260503030503 7 222 8.0 12.9 0.00 0.00 0.00 79 1011.1
20260503030003 7 222 8.0 14.5 0.00 0.00 0.00 79 1011.1
20260503025503 8 222 8.0 14.5 0.00 0.00 0.00 79 1010.9
20260503025003 8 222 8.0 14.5 0.00 0.00 0.00 79 1011.0
20260503024503 8 222 8.0 14.5 0.00 0.00 0.00 79 1010.9
20260503024003 8 222 8.0 14.5 0.00 0.00 0.00 79 1010.8
20260503023503 8 222 8.0 14.5 0.00 0.00 0.00 79 1010.7
20260503023213 8 222 8.0 14.5 0.00 0.00 0.00 79 1010.8
20260503022503 8 222 6.4 11.3 0.00 0.00 0.00 79 1010.9
20260503022003 8 222 8.0 14.5 0.00 0.00 0.00 79 1010.8
20260503021503 8 222 9.7 14.5 0.00 0.00 0.00 79 1010.8
20260503021003 8 222 9.7 14.5 0.00 0.00 0.00 79 1010.8
20260503020503 8 222 9.7 16.1 0.00 0.00 0.00 79 1010.7
20260503020003 8 222 8.0 16.1 0.00 0.00 0.00 79 1010.7
20260503015503 8 222 8.0 12.9 0.00 0.00 0.00 79 1010.7
20260503015003 8 222 8.0 12.9 0.00 0.00 0.00 79 1010.8
20260503014503 8 222 8.0 11.3 0.00 0.00 0.00 79 1010.9
20260503014003 8 222 8.0 16.1 0.00 0.00 0.00 79 1011.0
20260503013503 8 222 8.0 16.1 0.00 0.00 0.00 79 1010.9
20260503013213 8 222 8.0 12.9 0.00 0.00 0.00 79 1010.9
20260503012503 9 222 8.0 11.3 0.00 0.00 0.00 79 1011.0
20260503012214 9 222 8.0 14.5 0.00 0.00 0.00 79 1010.9
20260503011503 9 222 9.7 14.5 0.00 0.00 0.00 79 1010.9
20260503011003 9 222 8.0 14.5 0.00 0.00 0.00 79 1011.0
20260503010503 9 222 9.7 14.5 0.00 0.00 0.00 79 1011.0
20260503010003 9 222 8.0 12.9 0.00 0.00 0.00 79 1010.8
20260503005503 9 222 8.0 12.9 0.00 0.00 0.00 79 1010.9
20260503005003 9 222 9.7 14.5 0.00 0.00 0.00 79 1010.9
20260503004503 9 222 9.7 16.1 0.00 0.00 0.00 79 1010.9
20260503004003 10 222 9.7 16.1 0.00 0.00 0.00 79 1011.0
20260503003503 10 222 9.7 12.9 0.00 0.00 0.00 79 1011.0
20260503003003 10 222 8.0 12.9 0.00 0.00 0.00 79 1011.0
20260503002503 10 222 6.4 12.9 0.00 0.00 0.00 79 1011.1
20260503002003 10 222 8.0 14.5 0.00 0.00 0.00 79 1011.1
20260503001503 10 222 8.0 14.5 0.00 0.00 0.00 79 1011.1
20260503001003 10 222 8.0 14.5 0.00 0.00 0.00 79 1011.1
20260503000503 10 222 9.7 14.5 0.00 0.00 0.00 79 1011.1
20260503000003 10 222 8.0 14.5 0.00 0.00 0.00 79 1011.2
20260502235503 10 222 8.0 12.9 0.00 0.00 0.00 79 1011.2
20260502235213 10 222 8.0 12.9 0.00 0.00 0.00 79 1011.2
20260502234716 10 222 8.0 12.9 0.00 0.00 0.00 79 1011.1
20260502234214 10 222 8.0 12.9 0.00 0.00 0.00 79 1011.2
20260502233503 10 222 8.0 12.9 0.00 0.00 0.00 79 1011.2
20260502233215 10 222 8.0 12.9 0.00 0.00 0.00 79 1011.2
20260502232503 10 222 8.0 16.1 0.00 0.00 0.00 79 1011.3
20260502232003 10 222 9.7 19.3 0.00 0.00 0.00 79 1011.3
20260502231503 10 222 9.7 19.3 0.00 0.00 0.00 79 1011.3
20260502231004 10 222 9.7 14.5 0.00 0.00 0.00 79 1011.4
20260502230715 10 222 9.7 14.5 0.00 0.00 0.00 79 1011.4
20260502230003 10 222 9.7 14.5 0.00 0.00 0.00 79 1011.5
20260502225716 10 222 8.0 14.5 0.00 0.00 0.00 79 1011.5
20260502225213 10 222 8.0 12.9 0.00 0.00 0.00 79 1011.6
20260502224503 10 222 8.0 12.9 0.00 0.00 0.00 79 1011.7
20260502224003 10 222 8.0 14.5 0.00 0.00 0.00 79 1011.8
20260502223503 10 222 8.0 14.5 0.00 0.00 0.00 79 1011.8
20260502223003 10 222 9.7 14.5 0.00 0.00 0.00 79 1011.8
20260502222713 10 222 9.7 14.5 0.00 0.00 0.00 79 1011.8
20260502222003 10 222 8.0 14.5 0.00 0.00 0.00 79 1012.0
20260502221503 10 222 8.0 14.5 0.00 0.00 0.00 79 1012.1
20260502221003 10 222 8.0 12.9 0.00 0.00 0.00 79 1012.2
20260502220503 10 222 8.0 12.9 0.00 0.00 0.00 79 1012.2
20260502220003 10 222 8.0 16.1 0.00 0.00 0.00 79 1012.2
20260502215716 10 222 8.0 16.1 0.00 0.00 0.00 79 1012.1
20260502215003 10 222 8.0 12.9 0.00 0.00 0.00 79 1012.2
20260502214503 10 222 8.0 14.5 0.00 0.00 0.00 79 1012.4
20260502214003 10 222 8.0 14.5 0.00 0.00 0.00 79 1012.4
20260502213503 10 222 8.0 12.9 0.00 0.00 0.00 79 1012.3
20260502213003 10 222 8.0 12.9 0.00 0.00 0.00 79 1012.4
20260502212503 10 222 6.4 12.9 0.00 0.00 0.00 79 1012.4
20260502212217 10 222 8.0 12.9 0.00 0.00 0.00 79 1012.4
20260502211503 10 222 8.0 12.9 0.00 0.00 0.00 79 1012.4